Time,TemperatureF,DewpointF,PressureIn,WindDirection,WindDirectionDegrees,WindSpeedMPH,WindSpeedGustMPH,Humidity,HourlyPrecipIn,Conditions,Clouds,dailyrainin,SoftwareType,DateUTC
2013-10-15 00:07:00,53.4,45.3,29.87,East,90,4.5,6.0,74,0.01,,,0.00,pywws,2013-10-15 05:07:00,
2013-10-15 00:17:00,54.0,44.8,29.86,SE,135,6.9,9.2,71,0.00,,,0.00,pywws,2013-10-15 05:17:00,
2013-10-15 00:27:00,54.5,44.2,29.85,East,90,6.0,9.2,68,0.00,,,0.00,pywws,2013-10-15 05:27:00,
2013-10-15 00:37:00,54.7,43.5,29.85,SE,135,3.8,6.9,66,0.00,,,0.00,pywws,2013-10-15 05:37:00,
2013-10-15 00:47:00,54.9,43.7,29.84,SE,135,6.9,9.2,66,0.00,,,0.00,pywws,2013-10-15 05:47:00,
2013-10-15 00:57:00,55.4,43.8,29.83,SE,135,7.6,10.7,65,0.00,,,0.00,pywws,2013-10-15 05:57:00,
2013-10-15 01:07:00,55.4,43.8,29.83,SE,135,10.7,15.2,65,0.00,,,0.00,pywws,2013-10-15 06:07:00,
2013-10-15 01:17:00,56.1,44.5,29.83,South,180,5.4,9.2,65,0.00,,,0.00,pywws,2013-10-15 06:17:00,
2013-10-15 01:27:00,56.1,44.5,29.84,SE,135,4.5,6.9,65,0.00,,,0.00,pywws,2013-10-15 06:27:00,
2013-10-15 01:37:00,56.1,44.5,29.85,East,90,0.7,2.2,65,0.00,,,0.00,pywws,2013-10-15 06:37:00,
2013-10-15 01:47:00,55.8,45.4,29.86,SE,135,2.2,3.1,68,0.01,,,0.01,pywws,2013-10-15 06:47:00,
2013-10-15 01:57:00,54.1,46.4,29.85,SE,135,1.6,3.1,75,0.02,,,0.02,pywws,2013-10-15 06:57:00,
2013-10-15 02:07:00,52.9,47.5,29.87,North,-999,0.0,1.6,82,0.07,,,0.07,pywws,2013-10-15 07:07:00,
2013-10-15 02:17:00,51.6,47.6,29.86,North,-999,0.0,2.2,86,0.13,,,0.13,pywws,2013-10-15 07:17:00,
2013-10-15 02:27:00,51.3,48.7,29.85,South,180,1.6,3.1,91,0.17,,,0.17,pywws,2013-10-15 07:27:00,
2013-10-15 02:37:00,51.1,49.4,29.84,SE,135,2.2,3.1,94,0.24,,,0.24,pywws,2013-10-15 07:37:00,
2013-10-15 02:47:00,50.9,50.1,29.83,SE,135,3.8,5.4,97,0.26,,,0.27,pywws,2013-10-15 07:47:00,
2013-10-15 02:57:00,50.9,50.4,29.81,East,90,3.8,5.4,98,0.25,,,0.27,pywws,2013-10-15 07:57:00,
2013-10-15 03:07:00,51.1,50.8,29.80,SE,135,6.0,7.6,99,0.21,,,0.28,pywws,2013-10-15 08:07:00,
2013-10-15 03:17:00,51.3,51.0,29.79,SE,135,3.8,6.0,99,0.15,,,0.28,pywws,2013-10-15 08:17:00,
2013-10-15 03:27:00,51.6,51.1,29.79,SE,135,4.5,6.0,98,0.12,,,0.28,pywws,2013-10-15 08:27:00,
2013-10-15 03:37:00,52.0,50.9,29.78,South,180,3.8,5.4,96,0.05,,,0.28,pywws,2013-10-15 08:37:00,
2013-10-15 03:47:00,52.2,51.1,29.77,SE,135,2.2,3.8,96,0.01,,,0.28,pywws,2013-10-15 08:47:00,
2013-10-15 03:57:00,52.5,51.4,29.76,SE,135,6.0,9.2,96,0.01,,,0.28,pywws,2013-10-15 08:57:00,
2013-10-15 04:17:00,52.9,52.3,29.77,East,90,1.6,2.2,98,0.00,,,0.28,pywws,2013-10-15 09:17:00,
2013-10-15 04:47:00,53.8,52.9,29.76,SE,135,3.8,5.4,97,0.01,,,0.30,pywws,2013-10-15 09:47:00,
2013-10-15 04:57:00,54.3,53.5,29.77,East,90,1.6,2.2,97,0.02,,,0.31,pywws,2013-10-15 09:57:00,
2013-10-15 05:07:00,54.7,53.8,29.76,East,90,2.2,3.8,97,0.02,,,0.31,pywws,2013-10-15 10:07:00,
2013-10-15 05:17:00,55.0,54.2,29.76,SE,135,1.6,3.1,97,0.02,,,0.31,pywws,2013-10-15 10:17:00,
2013-10-15 05:27:00,55.4,55.1,29.75,SSE,158,3.1,3.8,99,0.02,,,0.31,pywws,2013-10-15 10:27:00,
2013-10-15 05:37:00,55.6,55.3,29.75,SE,135,1.6,2.2,99,0.01,,,0.31,pywws,2013-10-15 10:37:00,
2013-10-15 05:47:00,55.8,55.5,29.75,SSE,158,3.1,5.4,99,0.01,,,0.31,pywws,2013-10-15 10:47:00,
2013-10-15 05:57:00,55.9,55.7,29.74,East,90,2.2,3.8,99,0.00,,,0.31,pywws,2013-10-15 10:57:00,
2013-10-15 06:07:00,55.9,55.7,29.74,South,180,3.8,5.4,99,0.00,,,0.31,pywws,2013-10-15 11:07:00,
2013-10-15 06:17:00,56.1,55.8,29.74,SE,135,3.8,6.9,99,0.00,,,0.31,pywws,2013-10-15 11:17:00,
2013-10-15 06:27:00,56.7,56.4,29.74,NE,45,2.2,3.1,99,0.00,,,0.31,pywws,2013-10-15 11:27:00,
2013-10-15 06:37:00,56.8,56.6,29.74,East,90,2.2,3.8,99,0.00,,,0.31,pywws,2013-10-15 11:37:00,
2013-10-15 06:47:00,57.0,56.7,29.74,SW,225,1.6,3.1,99,0.00,,,0.31,pywws,2013-10-15 11:47:00,
2013-10-15 06:57:00,57.4,57.1,29.74,SE,135,0.7,2.2,99,0.00,,,0.31,pywws,2013-10-15 11:57:00,
2013-10-15 07:07:00,57.6,57.3,29.74,West,270,0.7,2.2,99,0.00,,,0.31,pywws,2013-10-15 12:07:00,
2013-10-15 07:17:00,57.7,57.5,29.73,West,270,3.1,4.5,99,0.00,,,0.31,pywws,2013-10-15 12:17:00,
2013-10-15 07:27:00,57.9,57.6,29.74,SW,225,3.8,6.9,99,0.00,,,0.31,pywws,2013-10-15 12:27:00,
2013-10-15 07:37:00,57.4,57.1,29.75,SW,225,3.1,5.4,99,0.00,,,0.31,pywws,2013-10-15 12:37:00,
2013-10-15 07:47:00,55.9,55.7,29.75,SW,225,5.4,8.3,99,0.00,,,0.31,pywws,2013-10-15 12:47:00,
2013-10-15 07:57:00,54.9,54.0,29.75,SW,225,4.5,6.0,97,0.00,,,0.31,pywws,2013-10-15 12:57:00,
2013-10-15 08:07:00,54.5,53.4,29.76,SW,225,3.1,4.5,96,0.00,,,0.31,pywws,2013-10-15 13:07:00,
2013-10-15 08:17:00,54.0,52.6,29.76,West,270,2.2,3.1,95,0.00,,,0.31,pywws,2013-10-15 13:17:00,
2013-10-15 08:27:00,53.8,52.1,29.76,SW,225,5.4,7.6,94,0.00,,,0.31,pywws,2013-10-15 13:27:00,
2013-10-15 08:37:00,53.1,50.8,29.77,SW,225,3.8,6.0,92,0.00,,,0.31,pywws,2013-10-15 13:37:00,
2013-10-15 08:47:00,52.7,50.1,29.77,SW,225,3.1,5.4,91,0.00,,,0.31,pywws,2013-10-15 13:47:00,
2013-10-15 08:57:00,52.7,50.1,29.77,SW,225,3.1,6.9,91,0.00,,,0.31,pywws,2013-10-15 13:57:00,
2013-10-15 09:17:00,53.6,50.1,29.78,SW,225,4.5,6.9,88,0.00,,,0.31,pywws,2013-10-15 14:17:00,
2013-10-15 09:27:00,53.2,49.5,29.78,SW,225,4.5,5.4,87,0.00,,,0.31,pywws,2013-10-15 14:27:00,
2013-10-15 09:37:00,54.1,49.7,29.77,SW,225,6.9,11.4,85,0.00,,,0.31,pywws,2013-10-15 14:37:00,
2013-10-15 09:47:00,53.6,48.9,29.78,South,180,3.8,6.9,84,0.00,,,0.31,pywws,2013-10-15 14:47:00,
2013-10-15 09:57:00,54.3,49.3,29.77,SW,225,4.5,8.3,83,0.00,,,0.31,pywws,2013-10-15 14:57:00,
2013-10-15 10:07:00,54.0,48.9,29.77,West,270,3.8,7.6,83,0.01,,,0.32,pywws,2013-10-15 15:07:00,
2013-10-15 10:17:00,53.2,48.8,29.77,SW,225,5.4,9.2,85,0.01,,,0.32,pywws,2013-10-15 15:17:00,
2013-10-15 10:27:00,53.8,48.7,29.77,West,270,3.1,5.4,83,0.01,,,0.32,pywws,2013-10-15 15:27:00,
2013-10-15 10:37:00,54.1,48.1,29.78,SW,225,3.8,6.9,80,0.01,,,0.32,pywws,2013-10-15 15:37:00,
2013-10-15 10:47:00,53.2,48.2,29.78,SW,225,5.4,9.8,83,0.01,,,0.32,pywws,2013-10-15 15:47:00,
2013-10-15 10:57:00,52.9,47.5,29.78,NW,315,5.4,12.1,82,0.01,,,0.32,pywws,2013-10-15 15:57:00,
2013-10-15 11:07:00,53.1,47.4,29.78,SW,225,4.5,8.3,81,0.00,,,0.32,pywws,2013-10-15 16:07:00,
2013-10-15 11:17:00,53.1,47.1,29.78,South,180,6.9,9.8,80,0.00,,,0.32,pywws,2013-10-15 16:17:00,
2013-10-15 11:27:00,53.4,47.4,29.78,West,270,3.1,6.0,80,0.00,,,0.32,pywws,2013-10-15 16:27:00,
2013-10-15 11:37:00,54.1,47.8,29.78,SW,225,6.0,13.6,79,0.00,,,0.32,pywws,2013-10-15 16:37:00,
2013-10-15 11:47:00,53.6,46.9,29.78,SW,225,5.4,9.2,78,0.00,,,0.32,pywws,2013-10-15 16:47:00,
2013-10-15 11:57:00,54.1,46.7,29.78,SW,225,3.1,4.5,76,0.00,,,0.32,pywws,2013-10-15 16:57:00,
2013-10-15 12:07:00,54.5,46.7,29.78,WNW,292,4.5,12.1,75,0.00,,,0.32,pywws,2013-10-15 17:07:00,
2013-10-15 12:17:00,53.6,46.2,29.78,West,270,3.8,6.0,76,0.00,,,0.32,pywws,2013-10-15 17:17:00,
2013-10-15 12:27:00,53.2,46.2,29.78,NW,315,3.1,5.4,77,0.00,,,0.32,pywws,2013-10-15 17:27:00,
2013-10-15 12:37:00,53.4,46.7,29.78,West,270,3.8,8.3,78,0.00,,,0.32,pywws,2013-10-15 17:37:00,
2013-10-15 12:47:00,55.9,48.5,29.78,SW,225,6.9,13.6,76,0.00,,,0.32,pywws,2013-10-15 17:47:00,
2013-10-15 12:57:00,55.9,46.7,29.77,SW,225,2.2,3.8,71,0.00,,,0.32,pywws,2013-10-15 17:57:00,
2013-10-15 13:07:00,53.8,45.3,29.78,West,270,3.1,6.0,73,0.00,,,0.32,pywws,2013-10-15 18:07:00,
2013-10-15 13:17:00,53.6,45.5,29.77,SW,225,5.4,8.3,74,0.00,,,0.32,pywws,2013-10-15 18:17:00,
2013-10-15 13:27:00,52.7,45.3,29.76,West,270,3.1,3.8,76,0.00,,,0.32,pywws,2013-10-15 18:27:00,
2013-10-15 13:37:00,53.1,45.7,29.77,NW,315,3.8,6.0,76,0.00,,,0.32,pywws,2013-10-15 18:37:00,
2013-10-15 13:47:00,53.2,45.5,29.77,NW,315,4.5,6.0,75,0.00,,,0.32,pywws,2013-10-15 18:47:00,
2013-10-15 13:57:00,53.1,45.0,29.77,NNW,338,4.5,10.7,74,0.00,,,0.32,pywws,2013-10-15 18:57:00,
2013-10-15 14:07:00,52.7,45.0,29.77,NW,315,6.0,12.1,75,0.00,,,0.32,pywws,2013-10-15 19:07:00,
2013-10-15 14:17:00,52.3,44.7,29.77,SW,225,3.8,5.4,75,0.00,,,0.32,pywws,2013-10-15 19:17:00,
2013-10-15 14:27:00,52.2,44.5,29.77,South,180,5.4,7.6,75,0.00,,,0.32,pywws,2013-10-15 19:27:00,
2013-10-15 14:37:00,52.2,44.8,29.77,West,270,4.5,8.3,76,0.00,,,0.32,pywws,2013-10-15 19:37:00,
2013-10-15 14:47:00,52.3,45.0,29.77,SW,225,3.1,4.5,76,0.00,,,0.32,pywws,2013-10-15 19:47:00,
2013-10-15 14:57:00,52.5,45.2,29.77,SW,225,3.8,6.9,76,0.00,,,0.32,pywws,2013-10-15 19:57:00,
2013-10-15 15:07:00,52.2,44.5,29.77,SW,225,3.8,5.4,75,0.00,,,0.32,pywws,2013-10-15 20:07:00,
2013-10-15 15:17:00,52.0,44.7,29.77,NNE,22,4.5,7.6,76,0.00,,,0.32,pywws,2013-10-15 20:17:00,
2013-10-15 15:27:00,51.6,45.0,29.78,South,180,3.1,7.6,78,0.00,,,0.32,pywws,2013-10-15 20:27:00,
2013-10-15 15:37:00,51.4,44.8,29.78,South,180,3.8,9.8,78,0.00,,,0.32,pywws,2013-10-15 20:37:00,
2013-10-15 15:47:00,51.1,44.5,29.78,NW,315,2.2,4.5,78,0.00,,,0.32,pywws,2013-10-15 20:47:00,
2013-10-15 15:57:00,51.3,45.0,29.78,West,270,3.1,5.4,79,0.00,,,0.32,pywws,2013-10-15 20:57:00,
2013-10-15 16:07:00,51.3,45.0,29.78,South,180,3.1,5.4,79,0.00,,,0.32,pywws,2013-10-15 21:07:00,
2013-10-15 16:17:00,51.1,44.8,29.78,SW,225,3.8,6.0,79,0.00,,,0.32,pywws,2013-10-15 21:17:00,
2013-10-15 16:27:00,50.9,44.6,29.78,SW,225,3.1,4.5,79,0.00,,,0.32,pywws,2013-10-15 21:27:00,
2013-10-15 16:51:00,50.9,44.6,29.79,SW,225,5.4,11.4,79,0.00,,,0.32,pywws,2013-10-15 21:51:00,
2013-10-15 16:57:00,50.5,44.3,29.79,SW,225,3.8,8.3,79,0.00,,,0.32,pywws,2013-10-15 21:57:00,
2013-10-15 17:01:00,50.7,44.4,29.79,West,270,3.8,6.9,79,0.00,,,0.32,pywws,2013-10-15 22:01:00,
2013-10-15 17:07:00,50.2,44.6,29.78,West,270,2.2,4.5,81,0.00,,,0.32,pywws,2013-10-15 22:07:00,
2013-10-15 17:31:00,50.2,44.9,29.78,West,270,3.8,6.0,82,0.00,,,0.32,pywws,2013-10-15 22:31:00,
2013-10-15 17:41:00,50.0,44.7,29.78,SW,225,3.8,6.0,82,0.00,,,0.32,pywws,2013-10-15 22:41:00,
2013-10-15 17:47:00,49.8,45.2,29.78,West,270,5.4,8.3,84,0.00,,,0.32,pywws,2013-10-15 22:47:00,
2013-10-15 17:51:00,50.0,44.7,29.78,SW,225,3.8,5.4,82,0.00,,,0.32,pywws,2013-10-15 22:51:00,
2013-10-15 17:57:00,49.8,45.2,29.78,West,270,4.5,6.9,84,0.00,,,0.32,pywws,2013-10-15 22:57:00,
2013-10-15 18:17:00,49.6,45.3,29.78,South,180,6.0,9.8,85,0.00,,,0.32,pywws,2013-10-15 23:17:00,
2013-10-15 18:21:00,49.6,45.3,29.78,NW,315,6.0,13.6,85,0.00,,,0.32,pywws,2013-10-15 23:21:00,
2013-10-15 18:41:00,49.6,45.3,29.78,South,180,5.4,9.8,85,0.00,,,0.32,pywws,2013-10-15 23:41:00,
2013-10-15 18:51:00,49.6,45.3,29.78,SW,225,3.1,6.9,85,0.00,,,0.32,pywws,2013-10-15 23:51:00,
2013-10-15 19:01:00,49.6,45.6,29.78,SW,225,7.6,12.1,86,0.00,,,0.32,pywws,2013-10-16 00:01:00,
2013-10-15 19:11:00,49.6,45.9,29.78,SW,225,3.8,6.9,87,0.00,,,0.32,pywws,2013-10-16 00:11:00,
2013-10-15 19:21:00,49.6,45.9,29.78,SW,225,3.8,5.4,87,0.00,,,0.32,pywws,2013-10-16 00:21:00,
2013-10-15 19:31:00,49.6,46.2,29.79,West,270,2.2,4.5,88,0.00,,,0.32,pywws,2013-10-16 00:31:00,
2013-10-15 19:41:00,49.3,46.2,29.79,SW,225,3.8,6.0,89,0.00,,,0.32,pywws,2013-10-16 00:41:00,
2013-10-15 19:47:00,48.9,47.3,29.79,South,180,3.8,6.9,94,0.00,,,0.32,pywws,2013-10-16 00:47:00,
2013-10-15 19:51:00,48.9,46.7,29.79,NW,315,3.1,5.4,92,0.00,,,0.32,pywws,2013-10-16 00:51:00,
2013-10-15 19:57:00,48.6,47.2,29.79,West,270,4.5,9.8,95,0.00,,,0.32,pywws,2013-10-16 00:57:00,
2013-10-15 20:07:00,48.6,47.5,29.79,West,270,5.4,7.6,96,0.00,,,0.32,pywws,2013-10-16 01:07:00,
2013-10-15 20:17:00,48.2,47.4,29.79,SW,225,2.2,3.8,97,0.00,,,0.32,pywws,2013-10-16 01:17:00,
2013-10-15 20:41:00,48.0,47.8,29.80,SW,225,4.5,6.9,99,0.00,,,0.32,pywws,2013-10-16 01:41:00,
2013-10-15 20:47:00,48.2,47.9,29.80,South,180,3.1,4.5,99,0.00,,,0.32,pywws,2013-10-16 01:47:00,
2013-10-15 20:51:00,48.0,47.8,29.80,SW,225,6.9,10.7,99,0.00,,,0.32,pywws,2013-10-16 01:51:00,
2013-10-15 21:07:00,48.4,48.1,29.80,SW,225,1.6,3.1,99,0.00,,,0.32,pywws,2013-10-16 02:07:00,
2013-10-15 21:11:00,48.4,48.1,29.80,SW,225,3.1,5.4,99,0.00,,,0.32,pywws,2013-10-16 02:11:00,
2013-10-15 21:17:00,48.6,48.3,29.80,SW,225,2.2,4.5,99,0.00,,,0.32,pywws,2013-10-16 02:17:00,
2013-10-15 21:41:00,48.4,48.1,29.80,SW,225,2.2,3.1,99,0.00,,,0.32,pywws,2013-10-16 02:41:00,
2013-10-15 21:47:00,48.7,47.9,29.81,SW,225,3.8,8.3,97,0.00,,,0.32,pywws,2013-10-16 02:47:00,
2013-10-15 21:51:00,48.6,48.0,29.80,SW,225,3.8,5.4,98,0.00,,,0.32,pywws,2013-10-16 02:51:00,
2013-10-15 21:57:00,48.7,47.7,29.81,West,270,3.8,4.5,96,0.00,,,0.32,pywws,2013-10-16 02:57:00,
2013-10-15 22:07:00,48.6,47.5,29.81,NW,315,3.1,7.6,96,0.00,,,0.32,pywws,2013-10-16 03:07:00,
2013-10-15 22:27:00,48.6,47.5,29.81,West,270,2.2,3.1,96,0.00,,,0.32,pywws,2013-10-16 03:27:00,
2013-10-15 22:31:00,48.6,47.7,29.81,West,270,3.8,6.0,97,0.00,,,0.32,pywws,2013-10-16 03:31:00,
2013-10-15 22:47:00,48.6,47.2,29.81,NW,315,1.6,3.1,95,0.00,,,0.32,pywws,2013-10-16 03:47:00,
2013-10-15 22:51:00,48.6,47.5,29.81,West,270,3.1,4.5,96,0.00,,,0.32,pywws,2013-10-16 03:51:00,
2013-10-15 22:57:00,48.4,47.0,29.81,South,180,3.1,6.9,95,0.00,,,0.32,pywws,2013-10-16 03:57:00,
2013-10-15 23:07:00,48.4,47.0,29.81,West,270,2.2,3.8,95,0.00,,,0.32,pywws,2013-10-16 04:07:00,
2013-10-15 23:17:00,48.4,47.0,29.81,SW,225,3.1,6.0,95,0.00,,,0.32,pywws,2013-10-16 04:17:00,
2013-10-15 23:27:00,48.2,46.8,29.81,South,180,1.6,3.1,95,0.00,,,0.32,pywws,2013-10-16 04:27:00,
2013-10-15 23:37:00,48.2,46.8,29.81,NW,315,3.8,6.0,95,0.00,,,0.32,pywws,2013-10-16 04:37:00,
2013-10-15 23:47:00,48.2,46.6,29.81,SW,225,3.1,7.6,94,0.00,,,0.32,pywws,2013-10-16 04:47:00,
2013-10-15 23:57:00,48.0,46.7,29.81,NW,315,2.2,4.5,95,0.00,,,0.32,pywws,2013-10-16 04:57:00,